Location: B�hl
(48.6968°N, 8.1352°E)
Time: 03:54:45
(UTC+00:00)

Cosmos 1943 Rocket - Pass Details

Date: 08 March 2021
Orbit: 811 x 844 km, 71.0° (Epoch: 17 April)

Event Time Altitude Azimuth Distance (km) Brightness Sun altitude
Rises 19:07:06 0° 336° (NNW) 3,415 5.9 -18.0°
Reaches altitude 10° 19:10:02 10° 349° (N) 2,475 4.9 -18.5°
Maximum altitude 19:14:38 25° 43° (NE) 1,663 3.5 -19.2°
Enters shadow 19:15:39 23° 60° (ENE) 1,710 3.4 -19.4°
